Other Public Products
Issued by NWS Grand Forks, ND

Home | Current Version | Previous Version | Graphics & Text | Print | Product List | Glossary On
Versions: 1 2 3 4 5 6 7 8 9 10 11 12 13 14 15 16 17 18 19 20 21 22 23 24 25 26 27 28 29 30 31 32 33 34 35 36 37 38 39 40 41 42 43 44 45 46 47 48 49 50
000
FPUS83 KFGF 220731
OPUFGF
PRAIRIE TO PINES WEATHER ROUNDUP
NATIONAL WEATHER SERVICE EASTERN NORTH DAKOTA/GRAND FORKS ND
200 AM CDT MON SEP 22 2014

 **SATELLITE DATA USED TO AUGMENT SKY COVER AT AUTOMATED STATIONS**
 *****  WEATHER ACROSS EASTERN NORTH DAKOTA  *****

CITY           SKY/WX    TMP DP  RH WIND       PRES   REMARKS
GRAND FORKS    CLEAR     50  48  93 S8        30.16S
GRAND FORKS AF CLEAR     48  48  99 SW7       30.16S
GRAND CITY NWS   N/A     50 N/A N/A S6          N/A
BUXTON           N/A     51  50  99 S7          N/A
DEVILS LAKE    CLEAR     52  43  71 S3        30.14F
FARGO          CLEAR     52  48  86 S8        30.20S
WAHPETON ARPT  SUNNY     45  43  93 SE6       30.22S
$$

 *****  WEATHER ACROSS CENTRAL AND WESTERN NORTH DAKOTA  *****

CITY           SKY/WX    TMP DP  RH WIND       PRES   REMARKS
JAMESTOWN      CLEAR     43  41  93 CALM      30.19S
BISMARCK       CLEAR     44  42  93 NE5       30.20F
MINOT          CLEAR     56  40  55 VRB5      30.13F
MINOT AFB      CLEAR     48  41  79 SW6       30.12F
GARRISON         N/A     48  44  86 CALM      30.16F
WILLISTON      CLEAR     46  39  76 CALM      30.12F
DICKINSON      CLEAR     48  38  68 S10       30.15F
HETTINGER      CLEAR     49  38  65 SE7       30.20S
$$

 *****  OTHER OBSERVATIONS NORTHEAST NORTH DAKOTA  *****

CITY           SKY/WX    TMP DP  RH WIND       PRES   REMARKS
WALHALLA       FAIR      50  46  87 S3        30.12F
LANGDON        FAIR      45  43  93 SW8       30.15R
CAVALIER       FAIR      48  45  87 S6        30.13S
GRAFTON        FAIR      45  45 100 S6        30.14F
CANDO          FAIR      45  41  87 S3        30.15S
FORT TOTTEN      N/A     49  45  85 SE5       29.95
ROLLA          FAIR      46  45  93 SW9       30.15S
RUGBY          FAIR      48  45  87 S7        30.14F
 ***** THE ABOVE OBSERVATIONS ARE NON NWS ARE NOT QUALITY
        CONTROLLED AND MAY MIS-REPORT RAIN FOR SNOW...
$$

 *****  OTHER OBSERVATIONS SOUTHEAST NORTH DAKOTA *****

CITY           SKY/WX    TMP DP  RH WIND       PRES   REMARKS
COOPERSTOWN    NOT AVBL
VALLEY CITY    FAIR      45  45 100 S5        30.19F
OAKES            N/A     45  45 100 SW6       30.22S
GWINNER        SUNNY     46  46 100 CALM      30.22S
BUFFALO          N/A     49  46  90 SW6         N/A
WYNDMERE         N/A     46  46 100 SW2         N/A
 ***** THE ABOVE OBSERVATIONS ARE NON NWS ARE NOT QUALITY
       CONTROLLED AND MAY MIS-REPORT RAIN FOR SNOW...
$$

  *****  WEATHER ACROSS NORTHERN MINNESOTA  *****

CITY           SKY/WX    TMP DP  RH WIND       PRES   REMARKS
FLAG ISLAND    CLEAR     52  48  87 SW15      30.10S
WARROAD        CLEAR     50  46  87 SW8       30.14S
ROSEAU         CLEAR     52  46  82 SW9       30.14S
HALLOCK        CLEAR     48  46  93 S7        30.13F
THF RVR FALLS  CLEAR     48  46  93 S7        30.17F
HALSTAD          N/A     47  45  93 S7          N/A
FOSSTON        CLEAR     43  41  93 CALM      30.20S
BAUDETTE       CLEAR     49  46  90 SW6       30.14S
WASKISH        CLEAR     48  46  93 CALM      30.16F
CROOKSTON      CLEAR     48  46  93 S7        30.18S
$$
  *****  WEATHER ACROSS CENTRAL AND WEST MINNESOTA  *****

CITY           SKY/WX    TMP DP  RH WIND       PRES   REMARKS
BEMIDJI        CLEAR     45  44  96 SW3       30.19S
PARK RAPIDS    CLEAR     43  41  93 CALM      30.20F
WADENA         PTCLDY    39  39 100 CALM      30.22S FOG
DETROIT LAKES  FOG       46  46 100 S3        30.22S VSB 1/2
MOORHEAD       CLEAR     48  48 100 S7        30.21S
FERGUS FALLS   CLEAR     48  46  93 S5        30.23F
ELBOW LAKE     FAIR      45  44  99 S5        30.23S
MORRIS MN      CLEAR     45  43  93 S5        30.23S
STAPLES        CLEAR     43  43 100 CALM      30.22F
WHEATON        CLEAR     48  46  93 S7        30.24F
$$
  *****  WEATHER ELSEWHERE ACROSS MINNESOTA  *****

CITY           SKY/WX    TMP DP  RH WIND       PRES   REMARKS
DULUTH         MOCLDY    50  46  86 NW6       30.19R
INTRNTL FALLS  CLEAR     40  39  97 SW3       30.14S
ELY            CLOUDY    48  46  93 W3        30.15S
CLOQUET        CLEAR     46  45  93 W6        30.19S
BRAINERD       CLEAR     42  42 100 S3        30.22S
HIBBING        CLEAR     41  39  93 CALM      30.17F FOG
ALEXANDRIA     CLEAR     46  44  93 SW5       30.24S
SAINT CLOUD    CLEAR     48  45  89 CALM      30.23S
MINNEAPOLIS    CLEAR     51  48  89 W3        30.23S
$$

  *****  WEATHER ACROSS SOUTH DAKOTA  *****

CITY           SKY/WX    TMP DP  RH WIND       PRES   REMARKS
SIOUX FALLS    CLEAR     46  44  93 CALM      30.27R
BROOKINGS      NOT AVBL
WATERTOWN      CLEAR     46  44  93 S5        30.25S
HURON          CLEAR     50  44  80 S6        30.25S
SISSETON         N/A     45  44  97 S5        30.21F
ABERDEEN       CLEAR     41  38  89 SW3       30.24R
MITCHELL       CLEAR     51  46  83 SW8       30.27S
PIERRE         CLEAR     49  41  74 SE6       30.22S
MOBRIDGE       CLEAR     48  47  96 E8        30.19F
RAPID CITY     MOCLDY    50  38  63 SE7       30.21F
$$

  *****  SOME WEATHER IN NEARBY STATES *****

CITY           SKY/WX    TMP DP  RH WIND       PRES   REMARKS
GLASGOW MT     CLEAR     53  36  52 E13       30.04F
GREAT FALLS MT CLEAR     61  45  55 SW13      29.98F
CHEYENNE WY    MOCLDY    54  40  59 S10       30.30F
SCOTTSBLUFF NE PTCLDY    57  43  59 E13       30.24F
OMAHA NE       CLEAR     52  50  93 CALM      30.29R
DES MOINES IA  CLEAR     54  48  80 N5        30.26R
DAVENPORT IA   CLEAR     46  43  89 NW7       30.21R
CHICAGO IL     PTCLDY    50  42  74 N9        30.17R
EAU CLAIRE WI  CLEAR     47  44  90 CALM      30.20R
LA CROSSE WI   CLEAR     47  45  93 SE5       30.22R
$$

  *****  SOME NATIONAL WEATHER *****

CITY           SKY/WX    TMP DP  RH WIND       PRES   REMARKS
LA GUARDIA NY  PTCLDY    69  59  70 NW10      29.66R
RALEIGH NC     MOCLDY    70  66  87 CALM      29.89R
ATLANTA GA     CLOUDY    72  64  76 W7        29.97F
NEW ORLEANS LA PTCLDY    74  68  81 CALM      30.01S
OKLAHOMA CITY  CLEAR     67  50  54 NE9       30.22R
ALBUQUERQUE NM MOCLDY    68  54  60 E16       30.30S
SALT LAKE CITY CLOUDY    61  59  93 CALM      30.14S
LOS ANGELES CA CLEAR     67  62  84 CALM      29.95S
BOISE ID       CLOUDY    68  52  56 SE7       30.03S
SEATTLE WA     MOCLDY    63  55  77 S8        29.97R
$$

*** WEATHER ACROSS MANITOBA...SASKATCHEWAN AND ONTARIO ***
                ***ONTARIO***

CITY           SKY/WX    TMP DP  RH WIND       PRES   REMARKS
GERALDTON      CLEAR     32  32 100 SW2       30.03F
THUNDER BAY    MOCLDY    39  39 100 NW3       30.10S
SIOUX LOOKOUT  CLEAR     50  48  93 W6        30.07F
TORONTO        MOCLDY    48  41  76 N16       29.86R
BIG TROUT LK   CLOUDY    50  45  81 W9        29.84F
PICKLE LAKE    NOT AVBL
DRYDEN         PTCLDY    48  46  93 SW8       30.09F
KENORA         CLEAR     50  48  93 SW7       30.11S
$$
                *** MANITOBA***

CITY           SKY/WX    TMP DP  RH WIND       PRES   REMARKS
BRANDON        CLEAR     46  43  87 W8        30.10S
DAUPHIN        CLEAR     55  45  67 W6        30.02S
ISLAND LAKE    PTCLDY    52  48  87 CALM      29.87F
PILOT MOUND    NOT AVBL
THE PAS        CLEAR     61  48  63 W13G20    29.87S
THOMPSON       PTCLDY    48  46  93 W5        29.76F
WINNIPEG       CLEAR     52  46  82 S12       30.10S
LYNN LAKE      CLEAR     55  50  82 W7        29.78R
CHURCHILL      CLOUDY    41  39  93 E10       29.76R
GILLAM         LGT RAIN  52  50  93 SW6       29.72
$$
                ***SASKATCHEWAN***

CITY           SKY/WX    TMP DP  RH WIND       PRES   REMARKS
ESTEVAN        CLEAR     48  41  76 S6        30.11S
KINDERSLEY     CLEAR     54  43  66 S12       29.93F
LLOYDMINSTER   CLEAR     54  43  66 S8        29.87F
PRINCE ALBERT  CLEAR     54  45  71 VRB2      29.94F
REGINA         CLEAR     46  41  81 SE8       30.06F
YORKTON        CLEAR     55  43  62 SW10      30.04F



USA.gov is the U.S. government's official web portal to all federal, state and local government web resources and services.